Weather History for Sierra Vista, AZ

Change the Weather History Date:

Tuesday, January 14, 2014

  Actual Average Record
Temperature  
Mean Temperature 50 °F -  
Max Temperature 62 °F 59 °F 71 °F (2002)
Min Temperature 37 °F 38 °F 19 °F (2007)
Degree Days  
Heating Degree Days 16    
Moisture  
Dew Point 8 °F    
Average Humidity 21    
Maximum Humidity 33    
Minimum Humidity 9    
Precipitation  
Precipitation 0.00 in - - ()
Sea Level Pressure  
Sea Level Pressure 30.27 in    
Wind  
Wind Speed 3 mph (ENE)    
Max Wind Speed 8 mph    
Max Gust Speed -    
Visibility 10 miles    
Events      
Averages and records for this station are not official NWS values.
T = Trace of Precipitation, MM = Missing Value Source: NWS Daily Summary

Daily Weather History Graph

Daily Weather History Graph

Search for Another Location

Airport:

Trip Planner

Search our weather history database for the weather conditions in past years. The results will help you decide how hot, cold, wet, or windy it might be!

Date:

Astronomy

Jan. 14, 2014 Rise Set
Actual Time 7:21 AM MST 5:39 PM MST
Civil Twilight 6:55 AM MST 6:06 PM MST
Nautical Twilight 6:25 AM MST 6:36 PM MST
Astronomical Twilight 5:55 AM MST 7:05 PM MST
Moon 4:46 PM MST (1/14) 6:00 AM MST (1/14)
Length of Visible Light 11h 11m
Length of Day
10h 18m
Waxing Gibbous, 98% of the Moon is Illuminated
Jan 14
Waxing Gibbous
Jan 15
Full
Jan 23
Last Quarter
Jan 30
New
Feb 6
First Quarter

Hourly Weather History & Observations

Time (MST) Temp. Windchill Dew Point Humidity Pressure Visibility Wind Dir Wind Speed Gust Speed Precip Events Conditions
12:55 AM 42.8 °F 41.1 °F 6.8 °F 23% 30.23 in 10.0 mi West 3.5 mph - N/A   Clear
1:55 AM 37.4 °F - 8.6 °F 30% 30.25 in 10.0 mi Calm Calm - N/A   Clear
2:55 AM 37.4 °F 32.1 °F 10.4 °F 33% 30.24 in 10.0 mi South 6.9 mph - N/A   Clear
3:55 AM 39.2 °F 37.0 °F 10.4 °F 31% 30.23 in 10.0 mi SSW 3.5 mph - N/A   Clear
4:55 AM 39.2 °F - 10.4 °F 31% 30.24 in 10.0 mi Calm Calm - N/A   Clear
5:55 AM 42.8 °F - 10.4 °F 27% 30.24 in 10.0 mi Calm Calm - N/A   Clear
6:55 AM 39.2 °F - 10.4 °F 31% 30.27 in 10.0 mi Calm Calm - N/A   Clear
7:55 AM 42.8 °F 41.1 °F 10.4 °F 27% 30.29 in 10.0 mi SW 3.5 mph - N/A   Clear
8:55 AM 50.0 °F - 10.4 °F 20% 30.29 in 10.0 mi North 3.5 mph - N/A   Clear
9:55 AM 51.8 °F - 10.4 °F 19% 30.32 in 10.0 mi NE 4.6 mph - N/A   Clear
10:55 AM 53.6 °F - 10.4 °F 18% 30.31 in 10.0 mi Calm Calm - N/A   Clear
11:55 AM 57.2 °F - 10.4 °F 16% 30.27 in 10.0 mi North 5.8 mph - N/A   Clear
12:55 PM 59.0 °F - 6.8 °F 13% 30.25 in 10.0 mi NE 4.6 mph - N/A   Clear
1:55 PM 60.8 °F - 3.2 °F 10% 30.22 in 10.0 mi Calm Calm - N/A   Clear
2:55 PM 62.6 °F - 3.2 °F 9% 30.22 in 10.0 mi NE 6.9 mph - N/A   Clear
3:55 PM 62.6 °F - 3.2 °F 9% 30.22 in 10.0 mi NNE 6.9 mph - N/A   Clear
4:55 PM 60.8 °F - 3.2 °F 10% 30.24 in 10.0 mi NE 4.6 mph - N/A   Clear
5:55 PM 57.2 °F - 3.2 °F 11% 30.25 in 10.0 mi North 4.6 mph - N/A   Clear
6:55 PM 53.6 °F - 8.6 °F 16% 30.30 in 10.0 mi NNE 3.5 mph - N/A   Clear
7:55 PM 51.8 °F - 8.6 °F 18% 30.30 in 10.0 mi SSE 3.5 mph - N/A   Clear
8:55 PM 46.4 °F 45.2 °F 8.6 °F 22% 30.30 in 10.0 mi SE 3.5 mph - N/A   Clear
9:55 PM 44.6 °F 43.1 °F 8.6 °F 23% 30.30 in 10.0 mi South 3.5 mph - N/A   Clear
10:55 PM 44.6 °F - 8.6 °F 23% 30.30 in 10.0 mi Calm Calm - N/A   Clear
11:55 PM 42.8 °F 38.0 °F 6.8 °F 23% 30.28 in 10.0 mi SE 8.1 mph - N/A   Clear